Regional Weather Roundup
Issued by NWS

Home | Current Version | Previous Version | Graphics & Text | Print | Product List | Glossary On
Versions: 1 2 3 4 5 6 7 8 9 10 11 12 13 14 15 16 17 18 19 20 21 22 23 24 25 26 27 28 29 30 31 32 33 34 35 36 37 38 39 40 41 42 43 44 45 46 47 48 49 50
792
ASUS43 KMPX 120801
RWRMN
WEATHER ROUNDUP FOR MINNESOTA
NATIONAL WEATHER SERVICE TWIN CITIES/CHANHASSEN MN
200 AM CST TUE DEC 12 2017


NOTE: "FAIR" INDICATES FEW OR NO CLOUDS BELOW 12,000 FEET WITH NO
SIGNIFICANT WEATHER AND/OR OBSTRUCTIONS TO VISIBILITY. N/A MEANS
CURRENT SKY AND/OR WEATHER CONDITIONS ARE NOT AVAILABLE.

MNZ060>063-068>070-120900-
   Twin Cities Metro

CITY           SKY/WX    TMP DP  RH WIND       PRES   REMARKS
TWIN CITIES    CLEAR     12   6  77 NW12G22   30.24S WCI  -2
ST PAUL        CLEAR     12   5  73 NW17      30.25S WCI  -5
CRYSTAL        CLEAR     11   2  67 NW12      30.24S WCI  -3
BLAINE         CLEAR     10   7  85 NW13      30.23R WCI  -5
LAKEVILLE      CLEAR     10   7  85 NW13      30.22S WCI  -5
EDEN PRAIRIE   CLEAR     12   5  73 NW9       30.24R WCI   0
SOUTH ST PAUL  CLEAR     13   6  73 NW9       30.23S WCI   1
LAKE ELMO      FAIR      12   7  79 NW8       30.23R WCI   1
$$
MNZ001>005-007-008-013>017-022>024-027-028-120900-
   Northwest Minnesota

CITY           SKY/WX    TMP DP  RH WIND       PRES   REMARKS
BEMIDJI        CLOUDY    -4  -8  86 CALM      30.20S
HALLOCK        CLOUDY     9   7  92 S6        30.23F WCI  -1
ROSEAU         CLOUDY    -2  -6  84 SW3       30.22F
WARROAD        CLOUDY    -2  -6  84 W7        30.21F WCI -16
CROOKSTON      CLOUDY     7   5  92 S5        30.27F WCI  -2
FOSSTON        FLURRIES  -4  -8  84 S3        30.24S
DETROIT LAKES  CLOUDY     3   1  92 W5        30.25S WCI  -6
MOORHEAD       CLOUDY     5   1  85 CALM      30.31S
PARK RAPIDS    CLOUDY    -2  -8  76 NW3       30.20F
MAHNOMEN       FAIR      -3  -6  84 SW3       30.25S
$$
MNZ006-009>011-018-025>026-120900-
   North Central Minnesota

CITY           SKY/WX    TMP DP  RH WIND       PRES   REMARKS
BAUDETTE       CLOUDY    -3  -7  82 S3        30.19S
FLAG ISLAND    CLOUDY    -2  -6  84 W3        30.19F
INTL FALLS     CLOUDY    -4  -8  83 W3        30.18F
WASKISH        CLOUDY     1  -2  85 W5        30.20F WCI  -8
LONGVILLE      CLOUDY     0  -2  92 CALM      30.21R
GRAND RAPIDS   CLOUDY     0  -3  87 NW10      30.20S WCI -16
CRANE LAKE     LGT SNOW   3   0  85 CALM      30.18F
ORR            CLOUDY     0  -6  78 NW5       30.13F WCI -10
COOK           LGT SNOW   1  -2  85 NW3       30.15F
WALKER         FAIR      -1  -4  87 W3        30.21S
$$
MNZ012-019>021-037-120900-
   Northeast Minnesota

CITY           SKY/WX    TMP DP  RH WIND       PRES   REMARKS
DULUTH         PTCLDY     3  -1  83 NW9       30.13R WCI -12
ELY            CLEAR      1  -4  78 NW6       30.13R WCI -10
HIBBING        CLOUDY     2  -2  83 NW15      30.15S WCI -17
EVELETH        LGT SNOW   3  -3  76 NW5       30.15R WCI  -6
DULUTH HARBOR  PTCLDY    10   1  67 SW7       30.22R WCI   0
TWO HARBORS    CLEAR      7   0  72 NW6       30.12S WCI  -3
SILVER BAY     CLEAR      5   0  78 NW5       30.11R WCI  -4
GRAND MARAIS     N/A      8  -3  61 CALM      30.15R
G MARAIS ARPRT MOCLDY     0  -8  71 NW6       30.01R WCI -12
$$
MNZ029>031-032-039>041-046>048-054>057-064-120900-
   West Central Minnesota

CITY           SKY/WX    TMP DP  RH WIND       PRES   REMARKS
FERGUS FALLS   CLOUDY     3   1  92 W6        30.33S WCI  -8
WHEATON        CLOUDY     9   5  85 W5        30.33F WCI   0
MORRIS         CLOUDY     7   3  85 W9        30.29S WCI  -7
ALEXANDRIA     CLOUDY     5   1  83 W9        30.26S WCI  -9
ELBOW LAKE     FAIR       4   1  88 NW5       30.29F WCI  -5
WADENA         CLOUDY     0  -2  92 W7        30.23S WCI -13
GLENWOOD       CLOUDY     3   0  85 W7        30.26F WCI  -9
APPLETON         N/A      9   5  85 W7        30.32F WCI  -3
BENSON         CLOUDY     7   3  85 NW8       30.32S WCI  -6
ORTONVILLE     CLOUDY    10   7  85 NW5       30.32S WCI   2
MADISON        CLOUDY    12   9  85 NW5       30.33F WCI   4
WILLMAR        FAIR       9   5  85 NW9       30.29S WCI  -5
$$
MNZ033>034-036-042>043-049>051-058-059-120900-
   Central Minnesota

CITY           SKY/WX    TMP DP  RH WIND       PRES   REMARKS
ST CLOUD       CLOUDY     5   1  83 NW7       30.25F WCI  -7
SAUK CENTRE    FAIR       4   0  81 W5        30.26F WCI  -5
PAYNESVILLE    CLOUDY     5   2  89 W6        30.27S WCI  -6
AITKIN         PTCLDY     1  -2  85 W3        30.20S
PINE RIVER     CLOUDY     1  -2  85 CALM      30.24S
BRAINERD       PTCLDY     3  -2  79 NW6       30.22F WCI  -8
STAPLES        CLOUDY    -2  -6  84 W5        30.23R WCI -12
LONG PRAIRIE   FAIR       3   0  85 SW6       30.25S WCI  -8
LITTLE FALLS   CLOUDY     5  -4  66 NW5       30.25S WCI  -4
LITCHFIELD     CLEAR      9   5  85 NW8       30.27S WCI  -4
BUFFALO        CLEAR      9   3  78 W6        30.27R WCI  -1
MAPLE LAKE     CLEAR      9   5  82 NW7       30.26S WCI  -2
HUTCHINSON     CLOUDY    10   4  79 W10       30.28S WCI  -4
$$
MNZ037-044-045-052-053-120900-
   East Central Minnesota

CITY           SKY/WX    TMP DP  RH WIND       PRES   REMARKS
PRINCETON      CLOUDY     7   1  78 W7        30.23F WCI  -5
MORA           CLEAR      7   1  78 NW7       30.24S WCI  -5
CAMBRIDGE      CLOUDY     9   0  66 W6        30.24S WCI  -1
RUSH CITY      PTCLDY     8   3  81 NW7       30.23R WCI  -3
MOOSE LAKE     MOCLDY     7   1  78 NW3       30.18S
HINCKLEY       FAIR       9   3  78 NW5       30.21R WCI   0
CLOQUET        CLEAR      3  -2  78 W8        30.15S WCI -10
MCGREGOR       CLOUDY     5   1  85 W6        30.20S WCI  -6
$$
MNZ071>073-080-081-089-090-097-098-120900-
   Southwest Minnesota

CITY           SKY/WX    TMP DP  RH WIND       PRES   REMARKS
MONTEVIDEO     CLEAR     10   7  85 NW5       30.32F WCI   2
GRANITE FALLS  CLEAR     11   8  85 W10       30.33F WCI  -2
CANBY          CLOUDY    13  10  88 CALM      30.33F
MARSHALL       CLOUDY     9   7  92 W6        30.32F WCI  -1
REDWOOD FALLS  CLEAR     12   3  67 NW10      30.30S WCI  -1
OLIVIA         CLEAR     10   5  79 NW8       30.29S WCI  -1
PIPESTONE      CLOUDY    12   9  85 NW7       30.28F WCI   2
WINDOM           N/A     12   1  62 NW14      30.27F WCI  -3
WORTHINGTON    CLEAR     12   9  87 NW10      30.28F WCI  -1
JACKSON        CLEAR     14   9  79 MISG      30.27S
TRACY          CLEAR     14  11  90 NW10      30.29F WCI   1
SLAYTON        CLEAR     12   9  89 NW9       30.29F WCI  -1
$$
MNZ065>067-074>077-082>085-091>093-120900-
   South Central Minnesota

CITY           SKY/WX    TMP DP  RH WIND       PRES   REMARKS
MANKATO        CLEAR     11   6  81 NW10      30.27R WCI  -3
NEW ULM        CLEAR     10   3  72 NW15      30.28S WCI  -6
ST JAMES       CLEAR     12   7  79 W14G21    30.30R WCI  -3
FAIRMONT       CLEAR     13   6  74 NW17G24   30.27S WCI  -4
GLENCOE        CLEAR     11   6  79 W8        30.27R WCI  -1
FARIBAULT      CLEAR     10   7  85 NW8       30.23R WCI  -1
OWATONNA       CLEAR     10   7  85 NW10      30.22R WCI  -3
WASECA         CLEAR     12   9  85 NW10      30.25R WCI  -1
ALBERT LEA     CLEAR     12   7  79 NW10G17   30.21R WCI  -1
$$
MNZ078>079-086>088-094>096-120900-
   Southeast Minnesota

CITY           SKY/WX    TMP DP  RH WIND       PRES   REMARKS
ROCHESTER      MOCLDY    14  11  87 NW14      30.16R WCI  -1
RED WING       CLEAR     16   7  67 NW6G18    30.21R WCI   7
STANTON        CLEAR     14   8  76 NW13      30.22R WCI   0
DODGE CENTER   CLEAR     12   9  85 NW15G21   30.18R WCI  -4
WINONA           N/A     18   9  68 NW13G21   30.19R WCI   4
AUSTIN         CLEAR     14  10  85 NW13G20   30.19R WCI   0
PRESTON        PTCLDY    15   9  76 N10       30.15R WCI   2
$$
ABBREVIATIONS USED IN REMARKS
   TC - TEMPERATURES IN CELSIUS
  WCI - WIND CHILL INDEX
   HX - HEAT INDEX
  VSB - VISIBILITY
$$




USA.gov is the U.S. government's official web portal to all federal, state and local government web resources and services.